Date String (YYYY-MM-DD hh:mm:ss) UTC,Instrument flags,Ambient pressure (hPa),Sample flow (lpm),Bypass flow (lpm),Sample temperature (°C),Ambient temperature (°C),ASC tube jacket temperature (°C),LED temperature (°C),Box temperature (°C),Sample RH (%),Span deviation,Mass concentration (μg/m³),Mass concentration (μg/m³),Mass concentration (μg/m³)
DateTimeUTC,F1_M11,P_M11,Q1_M11,Q2_M11,T1_M11,T2_M11,T3_M11,T4_M11,T5_M11,U1_M11,ZSPAN_M11,X2_M11,X0_M11,X1_M11
2022-11-06 13:00:00,,0819.9,5.00,0.00,23.0,21.3,00.0,31.9,24.9,16.0,0000.0,0001.60,0007.74,0000.85
2022-11-06 13:01:00,,0819.9,5.00,0.00,23.0,21.2,00.0,31.9,24.9,16.0,0000.0,0001.56,0007.96,0000.85
2022-11-06 13:02:00,,0820.0,5.00,0.00,23.0,21.2,00.0,31.8,24.8,16.0,0000.0,0001.55,0007.36,0000.85
2022-11-06 13:03:00,,0819.9,5.01,0.00,23.0,21.2,00.0,31.8,24.8,16.0,0000.0,0001.56,0007.07,0000.85
2022-11-06 13:04:00,,0819.9,5.01,0.00,22.9,21.3,00.0,31.8,24.8,16.1,0000.0,0001.56,0007.12,0000.85
2022-11-06 13:05:00,,0819.9,5.00,0.00,22.9,21.3,00.0,31.8,24.8,16.1,0000.0,0001.54,0007.14,0000.83
2022-11-06 13:06:00,,0819.9,5.00,0.00,22.9,21.2,00.0,31.8,24.8,16.1,0000.0,0001.51,0005.77,0000.83
2022-11-06 13:07:00,,0819.9,5.00,0.00,22.9,21.2,00.0,31.8,24.8,16.1,0000.0,0001.41,0005.10,0000.82
2022-11-06 13:08:00,,0820.0,5.01,0.00,22.9,21.2,00.0,31.8,24.8,16.1,0000.0,0001.47,0004.99,0000.82
2022-11-06 13:09:00,,0820.0,5.00,0.00,22.9,21.3,00.0,31.7,24.8,16.1,0000.0,0001.44,0004.03,0000.83
2022-11-06 13:10:00,,0820.0,5.00,0.00,22.9,21.3,00.0,31.7,24.8,16.1,0000.0,0001.42,0003.64,0000.84
2022-11-06 13:11:00,,0820.1,5.00,0.00,22.9,21.4,00.0,31.7,24.8,16.2,0000.0,0001.46,0003.56,0000.86
2022-11-06 13:12:00,,0820.2,4.99,0.00,22.9,21.4,00.0,31.7,24.8,16.2,0000.0,0001.51,0003.25,0000.86
2022-11-06 13:13:00,,0820.2,5.00,0.00,22.9,21.5,00.0,31.7,24.8,16.2,0000.0,0001.54,0004.25,0000.86
2022-11-06 13:14:00,,0820.2,5.01,0.00,22.9,21.5,00.0,31.7,24.8,16.1,0000.0,0001.58,0004.63,0000.87
2022-11-06 13:15:00,,0820.2,5.01,0.00,22.9,21.5,00.0,31.7,24.8,16.1,0000.0,0001.61,0005.79,0000.88
2022-11-06 13:16:00,,0820.3,4.99,0.00,22.9,21.5,00.0,31.7,24.9,16.1,0000.0,0001.68,0007.21,0000.89
2022-11-06 13:17:00,,0820.2,4.99,0.00,22.9,21.6,00.0,31.7,24.9,16.1,0000.0,0001.73,0007.51,0000.90
2022-11-06 13:18:00,,0820.3,5.00,0.00,22.9,21.6,00.0,31.7,24.9,16.1,0000.0,0001.78,0007.58,0000.91
2022-11-06 13:19:00,,0820.3,5.00,0.00,22.9,21.6,00.0,31.7,24.9,16.1,0000.0,0001.68,0007.41,0000.91
2022-11-06 13:20:00,,0820.4,5.00,0.00,22.9,21.6,00.0,31.7,24.9,16.1,0000.0,0001.71,0007.47,0000.92
2022-11-06 13:21:00,,0820.5,5.00,0.00,23.0,21.6,00.0,31.7,24.9,16.1,0000.0,0001.75,0007.73,0000.92
2022-11-06 13:22:00,,0820.6,5.01,0.00,23.0,21.6,00.0,31.7,24.9,16.1,0000.0,0001.73,0008.34,0000.91
2022-11-06 13:23:00,,0820.6,5.00,0.00,23.0,21.6,00.0,31.7,24.9,16.1,0000.0,0001.68,0008.30,0000.91
2022-11-06 13:24:00,,0820.6,5.01,0.00,23.0,21.6,00.0,31.7,24.9,16.1,0000.0,0001.64,0007.77,0000.91
2022-11-06 13:25:00,,0820.6,5.00,0.00,23.0,21.6,00.0,31.7,24.9,16.1,0000.0,0001.60,0007.64,0000.91
2022-11-06 13:26:00,,0820.6,5.00,0.00,23.0,21.6,00.0,31.7,24.9,16.1,0000.0,0001.59,0007.19,0000.90
2022-11-06 13:27:00,,0820.6,5.00,0.00,23.0,21.6,00.0,31.7,24.9,16.0,0000.0,0001.55,0005.54,0000.90
2022-11-06 13:28:00,,0820.6,4.98,0.00,23.0,21.6,00.0,31.7,24.9,16.0,0000.0,0001.52,0004.90,0000.90
2022-11-06 13:29:00,,0820.6,5.00,0.00,23.0,21.6,00.0,31.7,24.9,16.0,0000.0,0001.55,0004.92,0000.89
2022-11-06 13:30:00,,0820.6,5.02,0.00,23.0,21.6,00.0,31.7,24.9,16.0,0000.0,0001.60,0005.17,0000.89
2022-11-06 13:31:00,,0820.6,4.99,0.00,23.0,21.5,00.0,31.7,24.9,16.0,0000.0,0001.61,0005.20,0000.89
2022-11-06 13:32:00,,0820.5,4.99,0.00,23.0,21.5,00.0,31.7,24.9,16.0,0000.0,0001.59,0005.08,0000.89
2022-11-06 13:33:00,,0820.4,5.01,0.00,23.0,21.5,00.0,31.7,24.8,16.0,0000.0,0001.59,0004.54,0000.88
2022-11-06 13:34:00,,0820.4,5.01,0.00,23.0,21.5,00.0,31.7,24.9,16.0,0000.0,0001.55,0003.46,0000.88
2022-11-06 13:35:00,,0820.3,5.01,0.00,23.0,21.5,00.0,31.7,24.9,16.0,0000.0,0001.58,0003.47,0000.87
2022-11-06 13:36:00,,0820.3,5.00,0.00,23.0,21.5,00.0,31.7,24.9,16.0,0000.0,0001.59,0003.37,0000.87
2022-11-06 13:37:00,,0820.3,5.00,0.00,23.0,21.5,00.0,31.7,24.9,16.0,0000.0,0001.60,0003.54,0000.86
2022-11-06 13:38:00,,0820.3,4.99,0.00,23.0,21.5,00.0,31.7,24.9,16.0,0000.0,0001.61,0003.57,0000.87
2022-11-06 13:39:00,,0820.4,5.00,0.00,23.0,21.5,00.0,31.7,24.9,15.9,0000.0,0001.60,0003.59,0000.86
2022-11-06 13:40:00,,0820.4,5.01,0.00,23.0,21.5,00.0,31.7,24.9,15.8,0000.0,0001.54,0004.46,0000.85
2022-11-06 13:41:00,,0820.4,5.01,0.00,23.0,21.5,00.0,31.7,24.9,15.8,0000.0,0001.49,0005.16,0000.85
2022-11-06 13:42:00,,0820.4,5.01,0.00,23.0,21.5,00.0,31.7,24.9,15.8,0000.0,0001.51,0005.14,0000.85
2022-11-06 13:43:00,,0820.5,4.99,0.00,23.0,21.6,00.0,31.7,24.9,15.9,0000.0,0001.54,0005.85,0000.84
2022-11-06 13:44:00,,0820.6,4.99,0.00,23.0,21.6,00.0,31.7,24.9,16.0,0000.0,0001.53,0006.18,0000.84
2022-11-06 13:45:00,,0820.6,5.02,0.00,23.0,21.6,00.0,31.7,24.9,16.0,0000.0,0001.56,0006.38,0000.84
2022-11-06 13:46:00,,0820.6,4.99,0.00,23.0,21.6,00.0,31.7,24.9,16.0,0000.0,0001.57,0006.49,0000.83
2022-11-06 13:47:00,,0820.7,5.00,0.00,23.0,21.6,00.0,31.7,24.9,16.0,0000.0,0001.58,0006.72,0000.83
2022-11-06 13:48:00,,0820.7,5.01,0.00,23.0,21.6,00.0,31.7,24.9,16.0,0000.0,0001.62,0006.69,0000.83
2022-11-06 13:49:00,,0820.8,5.01,0.00,23.0,21.6,00.0,31.7,24.9,16.0,0000.0,0001.61,0006.71,0000.83
2022-11-06 13:50:00,,0820.8,5.00,0.00,23.0,21.6,00.0,31.7,24.9,16.1,0000.0,0001.58,0006.63,0000.82
2022-11-06 13:51:00,,0820.8,4.99,0.00,23.0,21.6,00.0,31.7,24.9,16.1,0000.0,0001.56,0006.02,0000.82
2022-11-06 13:52:00,,0820.8,5.00,0.00,23.0,21.6,00.0,31.7,24.9,16.0,0000.0,0001.54,0004.95,0000.83
2022-11-06 13:53:00,,0820.9,5.00,0.00,23.0,21.6,00.0,31.7,24.9,16.0,0000.0,0001.55,0005.78,0000.83
2022-11-06 13:54:00,,0820.8,5.00,0.00,23.0,21.6,00.0,31.7,24.9,16.0,0000.0,0001.51,0005.17,0000.84
2022-11-06 13:55:00,,0820.8,5.00,0.00,23.0,21.6,00.0,31.7,24.9,16.0,0000.0,0001.47,0004.80,0000.82
2022-11-06 13:56:00,,0820.8,5.01,0.00,23.0,21.7,00.0,31.7,24.9,16.0,0000.0,0001.45,0004.85,0000.82
2022-11-06 13:57:00,,0820.9,5.00,0.00,23.0,21.7,00.0,31.7,24.9,16.0,0000.0,0001.48,0004.99,0000.83
2022-11-06 13:58:00,,0820.9,4.99,0.00,23.0,21.7,00.0,31.8,24.9,16.1,0000.0,0001.45,0004.83,0000.84
2022-11-06 13:59:00,,0821.0,5.00,0.00,23.0,21.7,00.0,31.8,24.9,16.1,0000.0,0001.46,0004.94,0000.83
